Weather in Santa Barbara d'Oeste

Brazil     22°45′15″S   47°24′53″W
temp.,
°C
wind,
m/s
gust,
m/s
humid.,
%
clouds,
%
prec.,
mm/h
press.,
hPa
HPBL,
m
23 april, fri
fri2300:00+14sse38940 0.0 1018173
03:00+12s259615 0.0 101797
06:00+12sse22960 0.0 101843
09:00+18sse34690 0.0 1018562
12:00+24sse32430 0.0 10161214
15:00+25ssw32400 0.0 10131462
18:00+19s22580 0.0 101411
21:00+15sse35840 0.0 101685
24 april, sat
sat2400:00+14sse24940 0.0 101665
03:00+14sse2395100 0.0 101542
06:00+13sse22942 0.0 101642
09:00+20ese346790 0.0 1016477
12:00+26sse21423 0.0 10151230
15:00+27wsw32360 0.0 10121611
18:00+20sw11608 0.0 101211
21:00+17se116723 0.0 101311
25 april, sun
sun2500:00+16se22725 0.0 101411
03:00+15se11865 0.0 101411
06:00+14e228851 0.0 101411
09:00+21ene3354100 0.0 1014360
12:00+27nne2236100 0.0 10121008
15:00+28w223573 0.0 10101312
18:00+21sw225848 0.0 101111
21:00+19se226441 0.0 101211
26 april, mon
mon2600:00+18ne226655 0.0 101225
03:00+16n1170100 0.0 101211
06:00+18ene126478 0.0 101217
09:00+22nne115495 0.0 1013297
12:00+24w2250100 0.0 1013514
15:00+24ssw1154100 0.0 1011371
18:00+21sw116594 0.0 101211
21:00+19s116967 0.0 101411
27 april, tue
tue2700:00+18s227531 0.0 101417
03:00+16sse23945 0.0 101354
06:00+15sse22960 0.1 101538
09:00+21se34720 0.1 1016563
12:00+26sse324915 0.0 10141513
15:00+26s444776 0.1 10111720
18:00+19sse49840 1.6 1013173
21:00+17se511920 2.4 1015291